Temp
19 19 19 19 19 19 19 19 19 19 18 18 18 19 19 19 19 19 19 19 20 20
19 19 19 19 19 19 19 19 19 19 19 18 18 18 18 18 19 19 19 19 19 19
19 19 19 19 19 19 19 19 19 19 19 19 19 19 18 18 18 19 19 19 19 19
19 19 19 19 19 19 19 19 19 19 19 19 19 19 18 18 18 18 18 18 18 19
19 19 19 19 19 19 19 19 19 19 19 19 19 18 18 18 18 18 18 18 18 19
20 20 19 20 19 19 19 19 19 19 19 19 19 18 18 18 18 18 18 18 18 18
20 20 20 20 20 19 19 19 19 19 19 18 19 18 18 18 18 18 18 18 18 18
20 20 20 20 20 20 19 18 18 18 18 18 18 18 18 18 18 18 18 18 18 18
20 20 20 20 19 19 19 18 18 18 18 18 18 18 18 18 18 18 18 18 18 18
18 19 19 18 17 18 19 18 18 18 18 18 18 17 17 18 18 18 18 18 18 18
18 18 18 18 17 16 17 17 17 18 18 18 17 17 17 17 17 18 18 18 18 18
17 17 17 18 17 16 16 16 17 17 17 17 17 16 15 16 17 17 17 18 18 18
17 17 15 16 16 15 16 16 16 16 16 16 16 15 15 15 15 16 17 16 17 17
16 15 15 15 16 16 15 15 15 15 16 16 15 14 14 15 14 14 15 15 16 16
Height
1588 1590 1592 1594 1595 1596 1597 1599 1599 1600 1601 1601 1601 1602 1602 1603 1604 1604 1605 1605 1605 1605
1585 1587 1589 1591 1592 1593 1594 1595 1596 1597 1598 1598 1598 1599 1599 1600 1601 1602 1602 1602 1602 1603
1581 1584 1586 1588 1589 1590 1591 1591 1592 1593 1594 1595 1595 1596 1596 1597 1598 1598 1599 1599 1599 1599
1577 1580 1583 1584 1586 1588 1588 1589 1589 1590 1590 1591 1592 1593 1593 1594 1595 1595 1596 1596 1596 1596
1574 1576 1578 1580 1582 1584 1585 1586 1586 1587 1587 1587 1588 1589 1590 1591 1592 1592 1593 1593 1593 1594
1568 1571 1573 1575 1578 1580 1581 1582 1583 1583 1583 1583 1585 1585 1586 1587 1588 1589 1590 1590 1591 1591
1564 1567 1569 1571 1573 1575 1577 1578 1579 1580 1580 1581 1581 1581 1583 1584 1584 1585 1586 1587 1587 1588
1562 1564 1566 1567 1569 1571 1572 1573 1575 1576 1576 1577 1578 1578 1579 1580 1581 1582 1581 1581 1582 1583
1556 1558 1560 1563 1564 1566 1567 1568 1569 1571 1572 1573 1574 1575 1576 1577 1576 1576 1577 1578 1580 1580
1549 1551 1553 1555 1557 1560 1561 1564 1566 1566 1567 1568 1569 1571 1572 1573 1573 1573 1573 1574 1576 1577
1543 1544 1547 1547 1547 1550 1555 1559 1559 1561 1562 1563 1564 1566 1566 1568 1569 1570 1570 1570 1571 1573
1538 1538 1539 1540 1540 1540 1541 1550 1553 1555 1557 1558 1559 1559 1561 1563 1565 1564 1565 1567 1567 1569
1534 1533 1532 1531 1530 1534 1540 1539 1545 1547 1549 1551 1552 1552 1551 1554 1558 1561 1562 1564 1564 1565
1531 1531 1530 1529 1529 1532 1533 1529 1537 1539 1542 1544 1546 1549 1549 1547 1551 1553 1557 1560 1561 1561
Wind_Speed
20 17 15 16 14 14 13 14 13 13 13 12 11 11 11 12 10 10 10 10 10 8
22 20 17 15 15 13 13 15 16 17 15 15 16 13 12 12 14 12 10 11 11 11
23 22 18 16 17 17 14 15 16 16 16 15 15 16 14 14 14 15 13 12 11 9
25 24 23 22 17 16 17 15 13 14 15 17 15 18 17 13 14 15 14 12 11 10
25 23 24 24 23 20 17 16 15 14 15 17 19 17 18 15 13 13 13 13 14 12
24 25 24 24 24 21 19 19 16 14 13 15 17 18 18 15 15 15 15 15 16 14
26 25 21 21 23 23 21 21 19 17 15 15 15 17 17 17 17 17 17 16 16 16
30 28 28 25 22 22 24 24 22 21 19 17 15 14 16 17 18 20 18 17 12 13
33 34 33 31 27 24 25 26 25 24 21 19 18 15 14 16 17 18 19 18 17 18
27 27 32 34 32 28 27 25 24 22 22 21 20 18 15 15 17 17 16 17 18 17
22 27 24 27 31 31 27 28 25 24 22 24 23 25 19 19 18 15 15 15 15 17
23 26 29 32 35 34 29 26 27 23 21 22 22 24 24 21 18 12 10 13 14 13
15 12 22 23 21 24 21 26 25 20 14 13 16 16 22 34 29 22 16 10 7 9
8 9 10 9 8 12 19 30 26 20 16 11 13 9 19 20 24 19 22 19 21 23
Wind_Direction
228 234 241 233 245 244 249 252 254 257 253 256 249 253 261 257 257 257 253 255 259 264
230 233 239 242 243 248 257 251 259 253 255 255 253 257 267 262 252 253 260 255 257 263
233 231 238 245 246 257 265 267 257 252 251 253 248 251 259 261 256 257 259 254 251 257
231 238 243 247 253 256 259 255 247 252 259 249 249 249 257 263 256 258 252 251 249 254
235 239 242 246 248 253 258 244 254 262 260 252 253 250 252 256 260 255 257 252 254 256
232 237 242 243 244 250 249 245 249 260 269 254 252 250 253 249 253 257 257 252 252 253
233 234 238 244 243 244 242 240 246 250 254 252 256 249 242 250 251 255 261 260 262 252
245 247 245 244 247 244 244 241 247 247 252 249 255 250 249 254 257 261 261 257 260 248
254 252 253 251 247 247 244 242 245 247 244 245 249 251 254 254 255 252 256 260 261 262
255 265 266 259 252 250 245 242 243 242 243 245 253 252 256 258 252 250 253 253 251 255
260 265 265 260 255 252 244 246 242 244 248 247 257 251 244 257 250 253 254 256 255 251
276 277 270 270 276 252 249 248 241 242 248 254 269 266 242 245 235 229 237 247 249 252
264 281 265 262 268 252 242 244 240 224 244 275 279 263 257 238 236 244 243 254 233 237
242 284 259 227 231 252 254 237 235 241 246 263 268 277 277 230 232 230 235 256 265 268